Wind_Speed
26 27 28 32 35 32 32 29 22 25 23 20 20 19 21 20 20 17 15 14 12 10
18 20 24 25 28 30 28 27 27 24 24 23 22 22 21 21 21 19 15 13 12 11
20 20 21 23 26 26 24 26 25 24 25 25 23 22 23 22 20 19 17 15 15 13
24 23 20 18 18 20 22 22 21 23 23 22 22 22 25 25 23 21 19 17 15 13
23 21 21 18 17 17 18 15 20 18 20 23 22 24 22 22 21 20 18 16 13 11
19 21 20 18 17 17 17 17 18 19 22 21 22 21 22 20 16 11 15 15 14 15
18 16 16 16 16 19 19 20 19 18 18 21 25 25 24 22 18 20 14 13 13 11
17 16 16 18 18 19 18 17 18 19 20 22 23 24 23 24 22 17 14 13 13 13
20 18 20 20 20 20 18 17 18 19 20 21 20 19 21 22 20 14 13 15 15 12
21 21 21 20 20 19 17 16 16 16 18 20 18 15 14 13 9 11 14 15 13 13
23 20 19 20 21 20 20 20 19 18 18 19 14 11 9 9 11 13 13 14 14 14
22 20 19 18 16 15 15 14 14 13 12 13 13 10 13 13 13 12 11 11 11 12
17 18 17 15 14 13 12 11 10 11 10 9 11 9 8 8 9 13 11 11 11 11
19 16 16 12 11 10 9 7 7 8 8 8 9 10 9 7 9 12 12 11 10 12
Wind_Direction
186 185 182 179 182 182 185 178 184 177 183 184 187 189 191 183 186 181 181 181 192 191
165 174 176 179 179 180 180 177 181 179 178 179 186 186 189 189 192 190 187 188 182 180
136 154 158 170 172 174 175 179 181 178 190 182 185 182 179 178 180 177 166 166 159 155
119 117 132 138 158 156 168 174 175 186 187 173 175 171 173 169 163 158 149 143 142 137
96 113 119 127 134 149 154 165 166 176 176 175 184 185 179 174 166 162 159 165 162 152
90 101 112 122 135 141 145 160 165 175 180 175 174 170 168 165 157 165 160 151 160 168
70 88 105 120 130 132 140 148 155 166 171 173 176 182 180 182 180 166 177 185 179 188
69 84 99 105 106 111 121 133 147 156 163 168 171 173 173 178 173 173 167 184 192 188
66 73 77 85 94 101 108 120 136 145 152 156 159 157 159 156 155 164 177 170 163 166
53 66 75 83 88 93 100 112 118 129 138 136 133 140 146 162 171 176 170 171 171 164
44 57 68 79 84 94 105 113 121 125 131 134 130 144 146 151 149 150 156 161 164 164
34 45 58 67 77 89 100 105 111 117 126 139 138 120 148 147 146 156 166 177 189 188
21 35 47 52 62 75 88 101 115 120 131 143 152 134 118 141 176 173 169 177 187 200
21 25 36 44 52 63 75 89 105 122 130 145 152 162 144 157 163 177 184 189 193 201
Height
727 733 738 742 749 756 765 768 779 780 788 793 797 802 808 808 815 820 824 826 831 834
727 732 735 743 748 755 762 769 776 782 785 790 797 800 805 809 815 819 820 826 829 833
725 733 736 743 749 754 761 767 774 777 787 788 795 800 802 807 813 817 819 824 827 831
730 730 740 745 753 754 762 769 771 779 785 786 796 798 803 806 811 815 819 823 826 831
732 739 743 750 753 759 761 767 769 779 785 788 794 799 803 806 811 814 819 820 825 831
746 746 750 754 759 760 762 769 774 779 784 787 795 799 805 808 811 814 818 819 825 830
756 756 757 759 763 761 764 769 774 780 785 789 794 800 804 807 812 815 816 822 825 829
766 765 765 763 761 762 766 771 776 781 785 790 795 799 803 807 810 814 818 822 824 827
771 770 766 764 764 765 769 774 779 784 788 792 796 800 803 807 811 815 818 821 824 827
776 774 772 770 769 771 775 779 783 788 792 796 800 803 805 808 811 814 817 821 824 827
784 781 779 776 776 778 781 784 788 792 796 798 801 804 807 808 811 814 818 821 824 828
794 790 787 784 784 785 787 789 792 794 797 801 802 804 806 808 812 816 819 821 824 827
803 796 791 791 790 790 791 793 795 797 800 802 803 805 807 809 811 815 818 821 824 827
804 798 795 795 794 794 795 797 799 801 801 803 804 805 806 809 811 814 817 821 823 826